(86711) = 2000 GB6 = 1981 EW44

Discovered at Socorro on 2000-04-04 by LINEAR.

Orbit

Orbit type: Main Belt

Note: WebGL enabled browser required.

epoch2023-09-13.0
epoch JD2460200.5
perihelion date2023-03-15.88575
perihelion JD2460019.38575
argument of perihelion (°)17.35046
ascending node (°)200.12799
inclination (°)1.99452
eccentricity0.1610681
perihelion distance (AU)2.0383427
Tisserand w.r.t. Jupiter3.5
ΔV w.r.t. Earth (km/sec)8.9
semimajor axis (AU)2.4296880
mean anomaly (°)47.13361
mean daily motion (°/day)0.26024240
aphelion distance (AU)2.821
period (years)3.79
P-vector [x]-0.79364444
P-vector [y]-0.56222677
P-vector [z]-0.23244260
Q-vector [x]0.60826398
Q-vector [y]-0.74081360
Q-vector [z]-0.28497395
absolute magnitude16.92
phase slope0.15
uncertainty0
referenceMPEC 2024-A34
observations used531
oppositions18
arc length (days)15428
first opposition used1981
last opposition used2023
residual rms (arc-secs)0.77
perturbers coarse indicatorM-v
perturbers precise indicator003Ek
first observation date used1981-03-11.0
last observation date used2023-06-07.0
computer nameMPCLINUX
JD of orbit computation2456639.798741
perihelion JD uncertainty (days)7.3121E-05
argument of perihelion uncertainty (°)1.3206E-04
ascending node uncertainty (°)1.3120E-04
inclination uncertainty (°)7.6461E-06
eccentricity uncertainty 6.7626E-08
perihelion distance uncertainty (AU)1.6411E-07
Minimum Orbit Intersection Distances (in AU)
for orbit epoch: 2460200.5, reference: E2024-A34
Mercury1.58939
Venus1.3157
Earth1.03015
Mars0.43195
Jupiter2.14382
Saturn6.32549
Uranus16.2122
Neptune27.0203

Observations

540 total observations over interval: 1981 03 07.60751 – 2023 06 07.358456
These data are available for download (format description).

Date (UT) J2000 RA J2000 Dec Magn Location Ref
1981 03 07.60751 11 52 02.72 -00 58 42.2 20.5 V 413 – Siding Spring Observatory MPC 8862
1981 03 11.60352 11 48 45.92 -00 33 22.1   413 – Siding Spring Observatory MPC 8862
1981 03 11.64518 11 48 43.78 -00 33 06.4   413 – Siding Spring Observatory MPC 8862
1981 03 16.69028 11 44 24.74 +00 00 45.3   413 – Siding Spring Observatory MPC 8862
1990 10 14.38332 01 27 31.18 +09 03 40.4 22.1 V 691 – Steward Observatory, Kitt Peak-Spacewatch MPS 77887
1990 10 14.40432 01 27 29.96 +09 03 33.8 22.0 V 691 – Steward Observatory, Kitt Peak-Spacewatch MPS 77887
1990 10 14.42536 01 27 28.78 +09 03 26.4 21.9 V 691 – Steward Observatory, Kitt Peak-Spacewatch MPS 77887
1998 12 13.25912 03 30 24.81 +16 54 39.7 20.9 V 691 – Steward Observatory, Kitt Peak-Spacewatch MPS 15726
1998 12 13.29324 03 30 23.13 +16 54 34.0 20.9 V 691 – Steward Observatory, Kitt Peak-Spacewatch MPS 15726
1998 12 13.31542 03 30 22.05 +16 54 30.2 20.9 V 691 – Steward Observatory, Kitt Peak-Spacewatch MPS 15726
2000 03 10.38713 12 27 46.75 -04 25 29.0 19.1   704 – Lincoln Laboratory ETS, New Mexico MPS 15726
2000 03 10.39974 12 27 46.18 -04 25 24.0 19.2   704 – Lincoln Laboratory ETS, New Mexico MPS 15726
2000 03 10.41655 12 27 45.40 -04 25 18.3 19.5   704 – Lincoln Laboratory ETS, New Mexico MPS 15726
2000 03 10.43332 12 27 44.77 -04 25 13.0 19.5   704 – Lincoln Laboratory ETS, New Mexico MPS 15726
2000 03 26.33587 12 15 09.68 -02 44 10.8 18.2 R 699 – Lowell Observatory-LONEOS MPS 14257
2000 03 26.35644 12 15 08.65 -02 44 02.1   699 – Lowell Observatory-LONEOS MPS 14257
2000 03 26.37704 12 15 07.47 -02 43 53.8   699 – Lowell Observatory-LONEOS MPS 14257
2000 03 26.39767 12 15 06.39 -02 43 44.0   699 – Lowell Observatory-LONEOS MPS 14257
2000 04 04.31382 12 07 42.57 -01 42 16.0 18.5   704 – Lincoln Laboratory ETS, New Mexico MPS 12675
2000 04 04.32814 12 07 41.88 -01 42 09.7 18.9   704 – Lincoln Laboratory ETS, New Mexico MPS 12675
2000 04 04.35676 12 07 40.40 -01 41 57.6 19.0   704 – Lincoln Laboratory ETS, New Mexico MPS 12675
2000 04 04.37107 12 07 39.75 -01 41 52.5 19.1   704 – Lincoln Laboratory ETS, New Mexico MPS 12675
2000 04 05.20234 12 07 01.03 -01 36 21.2 18.3   704 – Lincoln Laboratory ETS, New Mexico MPS 12675
2000 04 05.21692 12 07 00.22 -01 36 15.0 19.6   704 – Lincoln Laboratory ETS, New Mexico MPS 12675
2000 04 05.23151 12 06 59.57 -01 36 08.6 18.9   704 – Lincoln Laboratory ETS, New Mexico MPS 12675
2000 04 05.24610 12 06 58.85 -01 36 02.6 18.7   704 – Lincoln Laboratory ETS, New Mexico MPS 12675
2000 04 05.26365 12 06 58.02 -01 35 55.4 19.2   704 – Lincoln Laboratory ETS, New Mexico MPS 12675
2000 04 07.19491 12 05 29.73 -01 23 18.0 19.3   704 – Lincoln Laboratory ETS, New Mexico MPS 15726
2000 04 07.22312 12 05 28.35 -01 23 07.1 19.8   704 – Lincoln Laboratory ETS, New Mexico MPS 15726
2000 04 07.23727 12 05 27.75 -01 23 00.9 19.8   704 – Lincoln Laboratory ETS, New Mexico MPS 15726
2000 04 07.25139 12 05 26.99 -01 22 56.0 19.6   704 – Lincoln Laboratory ETS, New Mexico MPS 15726
2001 09 19.25154 23 08 57.73 -03 44 15.4 20.9 V 691 – Steward Observatory, Kitt Peak-Spacewatch MPS 35634
2001 09 19.27292 23 08 56.58 -03 44 23.5 21.1 V 691 – Steward Observatory, Kitt Peak-Spacewatch MPS 35634
2001 09 19.29390 23 08 55.47 -03 44 31.4 21.4 V 691 – Steward Observatory, Kitt Peak-Spacewatch MPS 35634
2001 09 20.24738 23 08 07.29 -03 50 25.1 19.5   704 – Lincoln Laboratory ETS, New Mexico MPS 35634
2001 09 20.26154 23 08 06.54 -03 50 30.9 20.1   704 – Lincoln Laboratory ETS, New Mexico MPS 35634
2001 09 20.27569 23 08 05.76 -03 50 35.2 20.3   704 – Lincoln Laboratory ETS, New Mexico MPS 35634
2004 04 12.41356 15 28 55.64 -17 41 52.9 19.7 V 691 – Steward Observatory, Kitt Peak-Spacewatch MPS 104179
2004 04 12.44303 15 28 54.89 -17 41 47.3 19.5 V 691 – Steward Observatory, Kitt Peak-Spacewatch MPS 104179
2004 04 12.47211 15 28 54.15 -17 41 41.8 19.7 V 691 – Steward Observatory, Kitt Peak-Spacewatch MPS 104179
2004 04 17.35070 15 26 40.68 -17 25 07.5 19.3   704 – Lincoln Laboratory ETS, New Mexico MPS 104923
2004 04 17.36136 15 26 40.26 -17 25 04.8 19.7   704 – Lincoln Laboratory ETS, New Mexico MPS 104923
2004 04 17.37208 15 26 39.88 -17 25 03.0 19.6   704 – Lincoln Laboratory ETS, New Mexico MPS 104923
2004 04 17.38282 15 26 39.57 -17 25 00.6 19.5   704 – Lincoln Laboratory ETS, New Mexico MPS 104923
2004 04 17.39357 15 26 39.17 -17 24 57.2 19.6   704 – Lincoln Laboratory ETS, New Mexico MPS 104923
2004 04 21.42038 15 24 16.71 -17 09 15.1 19.1   704 – Lincoln Laboratory ETS, New Mexico MPS 104923
2004 04 21.43160 15 24 16.24 -17 09 11.7 19.4   704 – Lincoln Laboratory ETS, New Mexico MPS 104923
2004 04 21.44289 15 24 15.82 -17 09 08.5 19.4   704 – Lincoln Laboratory ETS, New Mexico MPS 104923
2004 04 21.45399 15 24 15.37 -17 09 05.5 19.4   704 – Lincoln Laboratory ETS, New Mexico MPS 104923
2004 04 25.29375 15 21 37.07 -16 52 42.3 18.9   704 – Lincoln Laboratory ETS, New Mexico MPS 106095
2004 04 25.30367 15 21 36.58 -16 52 39.6 19.3   704 – Lincoln Laboratory ETS, New Mexico MPS 106095
2004 04 25.31356 15 21 36.10 -16 52 34.7 19.6   704 – Lincoln Laboratory ETS, New Mexico MPS 106095
2004 04 25.33404 15 21 35.08 -16 52 31.5 19.8   704 – Lincoln Laboratory ETS, New Mexico MPS 106095
2004 04 28.33154 15 19 18.38 -16 38 52.4 19.2 V 691 – Steward Observatory, Kitt Peak-Spacewatch MPS 106095
2004 04 28.35904 15 19 16.99 -16 38 44.7 19.1 V 691 – Steward Observatory, Kitt Peak-Spacewatch MPS 106095
2004 04 28.39132 15 19 15.38 -16 38 35.6 19.1 V 691 – Steward Observatory, Kitt Peak-Spacewatch MPS 106095
2004 04 29.32106 15 18 31.09 -16 34 14.5 18.8   704 – Lincoln Laboratory ETS, New Mexico MPS 106095
2004 04 29.33995 15 18 30.14 -16 34 10.3 19.1   704 – Lincoln Laboratory ETS, New Mexico MPS 106095
2004 04 29.34923 15 18 29.64 -16 34 07.6 19.1   704 – Lincoln Laboratory ETS, New Mexico MPS 106095
2004 04 29.35847 15 18 29.18 -16 34 03.6 19.7   704 – Lincoln Laboratory ETS, New Mexico MPS 106095
2004 05 10.32455 15 09 05.20 -15 40 37.1 18.0 R 703 – Catalina Sky Survey MPS 106672
2004 05 10.33368 15 09 04.66 -15 40 34.3 18.1 R 703 – Catalina Sky Survey MPS 106672
2004 05 10.34277 15 09 04.17 -15 40 32.0 18.4 R 703 – Catalina Sky Survey MPS 106672
2004 05 10.35181 15 09 03.73 -15 40 28.7 18.1 R 703 – Catalina Sky Survey MPS 106672
2004 05 12.26502 15 07 22.98 -15 31 07.8 18.5 R 699 – Lowell Observatory-LONEOS MPS 108042
2004 05 12.28090 15 07 22.09 -15 31 02.5   699 – Lowell Observatory-LONEOS MPS 108042
2004 05 12.29680 15 07 21.19 -15 30 58.7   699 – Lowell Observatory-LONEOS MPS 108042
2004 05 12.31274 15 07 20.32 -15 30 52.7   699 – Lowell Observatory-LONEOS MPS 108042
2004 05 13.26444 15 06 30.55 -15 26 16.2 18.8 V 691 – Steward Observatory, Kitt Peak-Spacewatch MPS 106672
2004 05 13.29649 15 06 28.77 -15 26 07.0 18.8 V 691 – Steward Observatory, Kitt Peak-Spacewatch MPS 106672
2004 05 13.32591 15 06 27.13 -15 25 58.6 18.8 V 691 – Steward Observatory, Kitt Peak-Spacewatch MPS 106672
2004 05 14.46627 15 05 27.63 -15 20 28.1 20.1   608 – Haleakala-AMOS MPS 107286
2004 05 14.47666 15 05 27.08 -15 20 25.8 20.2   608 – Haleakala-AMOS MPS 107286
2004 05 14.48751 15 05 26.47 -15 20 21.7 20.0   608 – Haleakala-AMOS MPS 107286
2004 05 15.25301 15 04 47.28 -15 16 44.5 18.5   704 – Lincoln Laboratory ETS, New Mexico MPS 107286
2004 05 15.26252 15 04 46.80 -15 16 41.7 18.9   704 – Lincoln Laboratory ETS, New Mexico MPS 107286
2004 05 15.27202 15 04 46.22 -15 16 39.8 18.4   704 – Lincoln Laboratory ETS, New Mexico MPS 107286
2004 05 15.28155 15 04 45.75 -15 16 36.1 18.8   704 – Lincoln Laboratory ETS, New Mexico MPS 107286
2004 05 15.29111 15 04 45.25 -15 16 34.2 19.1   704 – Lincoln Laboratory ETS, New Mexico MPS 107286
2004 05 16.30894 15 03 53.01 -15 11 47.3 19.0   704 – Lincoln Laboratory ETS, New Mexico MPS 107286
2004 05 16.31858 15 03 52.50 -15 11 43.9 19.2   704 – Lincoln Laboratory ETS, New Mexico MPS 107286
2004 05 16.32815 15 03 51.97 -15 11 40.7 19.4   704 – Lincoln Laboratory ETS, New Mexico MPS 107286
2004 05 16.34735 15 03 50.94 -15 11 36.1 19.2   704 – Lincoln Laboratory ETS, New Mexico MPS 107286
